[[[{"header":{"parameterUnit":"kt","parameterCategory":2,"dx":1,"dy":1,"la1":30.253999710083008,"la2":30.299108505249023,"lo1":-89.0895004272461,"lo2":-89.04439544677734,"nx":28,"ny":28,"refTime":"2022-10-01T21:00:00:Z","depth":0,"parameterNumber":1,"parameterNumberName":"U-component_of_WINDS"},"data":[0.449,0.4395,0.4409,0.4306,0.4302,0.4233,0.4212,0.4187,0.417,0.4088,0.4043,0.4046,0.4032,0.398,0.393,0.3932,0.3906,0.3864,0.3871,0.4057,0.4083,0.4108,0.413,0.386,0.386,0.3675,0.3673,0.3672,0.4625,0.462,0.4571,0.4532,0.4489,0.4541,0.4513,0.4472,0.4408,0.4387,0.4344,0.4272,0.4216,0.4217,0.4164,0.4117,0.4135,0.4101,0.4101,0.4097,0.4297,0.4321,0.4087,0.4087,0.4087,0.4087,0.4087,0.4088,0.4875,0.4818,0.4803,0.4749,0.4733,0.4707,0.4653,0.4659,0.4609,0.4558,0.4584,0.4511,0.449,0.4433,0.4416,0.4358,0.4396,0.4362,0.4352,0.434,0.4326,0.4582,0.435,0.4351,0.4352,0.4352,0.4353,0,0.506,0.5076,0.5029,0.4987,0.4948,0.4916,0.4888,0.4856,0.4892,0.4849,0.4787,0.4753,0.4685,0.4626,0.4579,0.4569,0.461,0.4618,0.4593,0.4574,0.4566,0.4563,0.4884,0.4622,0.4625,0.4626,0.4628,0.4628,0.5307,0.524,0.5231,0.5196,0.5185,0.5128,0.5097,0.5134,0.5098,0.5068,0.5014,0.4957,0.4913,0.4809,0.4812,0.476,0.4778,0.4676,0.4769,0.4758,0.4768,0.4769,0.4761,0.4654,0.465,0.4648,0.4646,0,0.5443,0.5467,0.5367,0.5365,0.5362,0.5289,0.5285,0.5228,0.524,0.5163,0.5147,0.5162,0.5099,0.5119,0.5051,0.5062,0.4935,0.4958,0.4943,0.4946,0.4852,0.4858,0.4555,0.4515,0.4803,0.48,0.4798,0,0.566,0.557,0.561,0.555,0.5452,0.5491,0.5391,0.5391,0.5374,0.5314,0.5369,0.531,0.5346,0.529,0.5307,0.5208,0.5197,0.5197,0.5201,0.5188,0.5186,0.5162,0.5171,0.5221,0.5222,0.5224,0.5225,0,0.5866,0.5784,0.5689,0.5673,0.5659,0.5613,0.5605,0.5587,0.5554,0.5517,0.5495,0.5448,0.5419,0.5381,0.5402,0.5464,0.5284,0.5373,0.5283,0.5282,0.5235,0.5236,0.4971,0.5227,0.5227,0.5228,0.5228,0,0.6041,0.6006,0.5866,0.5855,0.5831,0.5768,0.5725,0.5676,0.5653,0.566,0.563,0.5666,0.5585,0.5672,0.5559,0.5634,0.5603,0.5597,0.5591,0.5578,0.5673,0.5512,0.5263,0.5234,0.5576,0.5579,0.5581,0,0.6268,0.6134,0.6167,0.6032,0.5972,0.6037,0.5968,0.5946,0.595,0.5898,0.5902,0.5841,0.5911,0.5894,0.5837,0.5836,0.574,0.5851,0.5766,0.5763,0.5765,0.5538,0.5492,0.5318,0.5619,0.5615,0.5612,0,0.6446,0.6432,0.6405,0.6388,0.6367,0.6317,0.6239,0.6188,0.6152,0.6122,0.6053,0.5972,0.6019,0.599,0.6014,0.5952,0.5806,0.601,0.601,0.5968,0.5641,0.5598,0.5569,0.5835,0.583,0.5827,0.5642,0,0.6696,0.6633,0.6565,0.6526,0.6491,0.6409,0.6431,0.6392,0.6419,0.6424,0.6327,0.6312,0.6256,0.6231,0.6255,0.6111,0.6136,0.6187,0.6267,0.612,0.6059,0.6035,0.6356,0.6359,0.6361,0.6363,0,0,0.6904,0.6813,0.685,0.6776,0.6748,0.6815,0.6724,0.6705,0.6662,0.664,0.6688,0.6567,0.6551,0.6428,0.6385,0.6364,0.6338,0.6388,0.6191,0.6172,0.6155,0.6089,0.6064,0.6367,0.6367,0.6368,0.6369,0,0.6999,0.6989,0.6901,0.6884,0.6859,0.6869,0.6849,0.6834,0.6832,0.6738,0.679,0.6733,0.6636,0.6611,0.6585,0.6406,0.6444,0.6389,0.6283,0.6212,0.619,0.6171,0.6102,0.6078,0.6374,0.6374,0.6373,0,0.7173,0.7165,0.7126,0.7069,0.7052,0.6989,0.7081,0.701,0.6963,0.7033,0.6937,0.6931,0.69,0.6784,0.6732,0.6772,0.6539,0.6617,0.6604,0.6596,0.6528,0.6502,0.6479,0.6787,0.6788,0.6789,0,0,0.7251,0.7193,0.7193,0.7091,0.7077,0.7091,0.706,0.7082,0.7056,0.7045,0.7036,0.7007,0.695,0.6911,0.6859,0.6729,0.6723,0.6667,0.6648,0.6632,0.6615,0.6543,0.6517,0.6794,0.6794,0.6795,0,0,0.7287,0.7284,0.7316,0.7201,0.7176,0.7166,0.7101,0.7139,0.7095,0.7105,0.7137,0.7131,0.7022,0.7013,0.708,0.6887,0.6967,0.6951,0.6896,0.6872,0.6852,0.6854,0.7166,0,0,0,0,0,0.7394,0.7285,0.7315,0.7299,0.7225,0.7151,0.7141,0.7167,0.7223,0.7171,0.717,0.7215,0.7055,0.7116,0.7097,0.702,0.6861,0.6849,0.6838,0.6736,0.6711,0.6689,0,0,0,0,0,0,0.7388,0.7368,0.7318,0.7303,0.7287,0.7155,0.7255,0.7259,0.7229,0.7239,0.7214,0.7214,0.7232,0.7127,0.711,0.7036,0.7172,0.6856,0.6846,0.6837,0.6727,0.6706,0.6688,0,0,0,0,0,0.7383,0.7367,0.7243,0.7305,0.7291,0.7299,0.726,0.7264,0.724,0.7238,0.724,0.7263,0.723,0.7217,0.7117,0.7043,0.7184,0.7178,0.685,0.6842,0.6835,0.6717,0,0,0,0,0,0,0.738,0.7369,0.7241,0.7237,0.7348,0.7307,0.7302,0.7267,0.7242,0.7242,0.7289,0.7297,0.7226,0.7217,0.7207,0.7044,0.7194,0.7187,0.7183,0.6844,0.6837,0.6832,0,0,0,0,0,0,0.7378,0.7366,0.7239,0.7292,0.7295,0.7314,0.7309,0.7228,0.724,0.7294,0.73,0.7293,0.724,0.7217,0.7209,0.708,0.7201,0.7195,0.7191,0.7188,0.6839,0.6834,0,0,0,0,0,0,0.7373,0.7363,0.7293,0.7295,0.7298,0.726,0.7242,0.7164,0.7289,0.7294,0.7301,0.7306,0.7238,0.7231,0.721,0.7084,0.7081,0.7201,0.7197,0.7194,0.7192,0,0,0,0,0,0,0,0.737,0.7434,0.7262,0.7298,0.73,0.7205,0.7204,0.7203,0.729,0.7295,0.73,0.7304,0.7237,0.723,0.7223,0.7087,0,0,0.7202,0.7199,0,0,0,0,0,0,0,0,0.7439,0.7435,0.7262,0.7261,0.726,0.7205,0.7204,0.7203,0.7291,0.7295,0.7299,0.7302,0.7235,0.7229,0.7224,0,0,0,0,0,0,0,0,0,0,0,0,0,0,0,0.7261,0.7261,0,0.7205,0.7204,0.7203,0.7292,0.7295,0.7298,0.7301,0.7233,0.7229,0.7224,0,0,0,0,0,0,0,0,0,0,0,0,0,0,0,0,0,0,0,0,0,0,0,0,0,0,0,0,0,0,0,0,0,0,0,0,0,0,0,0,0,0,0,0,0,0,0,0,0,0,0,0,0,0,0,0,0,0,0,0,0,0,0,0,0,0,0,0,0]}],[{"header":{"parameterUnit":"kt","parameterCategory":2,"dx":1,"dy":1,"la1":30.253999710083008,"la2":30.299108505249023,"lo1":-89.0895004272461,"lo2":-89.04439544677734,"nx":28,"ny":28,"refTime":"2022-10-01T21:00:00:Z","depth":0,"parameterNumber":2,"parameterNumberName":"V-component_of_WINDS"},"data":[-7.8896,-7.9115,-7.9134,-7.9392,-7.9452,-7.9632,-7.9702,-7.9794,-7.9871,-8.0086,-8.0213,-8.0253,-8.0336,-8.049,-8.0627,-8.0641,-8.0699,-8.0763,-8.0769,-8.0465,-8.0424,-8.0385,-8.0335,-8.0775,-8.0776,-8.1081,-8.1084,-8.1086,-7.8673,-7.8735,-7.8877,-7.9028,-7.9149,-7.9099,-7.9213,-7.9318,-7.9479,-7.9576,-7.9702,-7.9892,-8.0043,-8.0106,-8.0254,-8.0356,-8.034,-8.0394,-8.0387,-8.0401,-8.0077,-8.0024,-8.0405,-8.0405,-8.0405,-8.0405,-8.0405,-8.0405,-7.8272,-7.8402,-7.8504,-7.8658,-7.8738,-7.8838,-7.8965,-7.9012,-7.915,-7.9308,-7.9302,-7.9484,-7.9583,-7.977,-7.9836,-7.9977,-7.9919,-7.9984,-8.0001,-8.0017,-8.0034,-7.9592,-8.0003,-8.0002,-8.0001,-8.0,-7.9999,0,-7.7983,-7.7991,-7.8127,-7.8271,-7.8384,-7.8496,-7.8601,-7.868,-7.8698,-7.8812,-7.8977,-7.9074,-7.9267,-7.9423,-7.9565,-7.9621,-7.9578,-7.9575,-7.9621,-7.9627,-7.9615,-7.9625,-7.9096,-7.9563,-7.956,-7.9557,-7.9555,-7.9553,-7.7581,-7.773,-7.7845,-7.7938,-7.8,-7.8152,-7.8245,-7.8249,-7.8348,-7.8478,-7.8592,-7.8749,-7.8874,-7.9134,-7.9184,-7.9327,-7.9308,-7.9484,-7.9329,-7.9329,-7.9312,-7.9303,-7.9318,-7.9514,-7.9519,-7.9523,-7.9527,0,-7.7352,-7.7381,-7.7618,-7.7716,-7.7745,-7.7901,-7.7984,-7.8114,-7.8143,-7.8325,-7.8368,-7.8415,-7.8575,-7.8597,-7.8784,-7.879,-7.9047,-7.9024,-7.9013,-7.901,-7.9171,-7.9156,-7.9688,-7.9759,-7.9301,-7.9305,-7.9309,0,-7.702,-7.7216,-7.7247,-7.7383,-7.76,-7.7599,-7.7814,-7.7861,-7.7946,-7.8089,-7.8045,-7.818,-7.8186,-7.8324,-7.8333,-7.8547,-7.8581,-7.8599,-7.8599,-7.8604,-7.8602,-7.8655,-7.8634,-7.8592,-7.859,-7.8587,-7.8585,0,-7.666,-7.6905,-7.7126,-7.7186,-7.7309,-7.7413,-7.7469,-7.7563,-7.7655,-7.7776,-7.7835,-7.7975,-7.8053,-7.8162,-7.8173,-7.8066,-7.8433,-7.8289,-7.8451,-7.8451,-7.8532,-7.8527,-7.8992,-7.8582,-7.8581,-7.858,-7.8579,0,-7.6395,-7.6519,-7.6835,-7.6936,-7.7,-7.7145,-7.7284,-7.7413,-7.7516,-7.7532,-7.7627,-7.7599,-7.7786,-7.7642,-7.7901,-7.7759,-7.7838,-7.7871,-7.7883,-7.7902,-7.774,-7.8001,-7.8442,-7.8489,-7.7918,-7.7913,-7.7908,0,-7.5975,-7.6301,-7.6302,-7.6602,-7.6756,-7.6695,-7.6856,-7.6948,-7.6982,-7.7116,-7.7152,-7.7305,-7.7202,-7.7252,-7.7377,-7.7421,-7.7604,-7.7396,-7.7589,-7.7596,-7.7565,-7.7971,-7.8031,-7.8343,-7.7838,-7.7845,-7.785,0,-7.5653,-7.5801,-7.5854,-7.5923,-7.6045,-7.6173,-7.6358,-7.6509,-7.6598,-7.6706,-7.6861,-7.7075,-7.7006,-7.709,-7.7081,-7.7211,-7.748,-7.7119,-7.7121,-7.7184,-7.7803,-7.7861,-7.7913,-7.7445,-7.7454,-7.7461,-7.7795,0,-7.5249,-7.5414,-7.556,-7.5712,-7.5813,-7.6002,-7.6024,-7.6128,-7.611,-7.6141,-7.6368,-7.6448,-7.6601,-7.6665,-7.6648,-7.6937,-7.6891,-7.6816,-7.6677,-7.6943,-7.7053,-7.7098,-7.6511,-7.6506,-7.6503,-7.65,0,0,-7.484,-7.5078,-7.5073,-7.5252,-7.5337,-7.5271,-7.547,-7.5545,-7.5699,-7.5759,-7.5682,-7.5996,-7.6064,-7.6337,-7.6422,-7.6483,-7.6537,-7.6443,-7.6816,-7.6851,-7.6884,-7.7001,-7.7048,-7.6494,-7.6493,-7.6492,-7.6491,0,-7.4697,-7.4769,-7.4966,-7.5044,-7.5159,-7.5182,-7.5229,-7.5331,-7.5359,-7.5582,-7.5523,-7.5661,-7.5912,-7.5992,-7.6066,-7.6411,-7.6358,-7.6455,-7.6634,-7.6781,-7.6821,-7.6856,-7.698,-7.7024,-7.6483,-7.6483,-7.6484,0,-7.4384,-7.4459,-7.4556,-7.4747,-7.4821,-7.498,-7.484,-7.5013,-7.5131,-7.5047,-7.5269,-7.5316,-7.5425,-7.568,-7.5795,-7.5728,-7.6194,-7.605,-7.6072,-7.6085,-7.6228,-7.6276,-7.6318,-7.5761,-7.5758,-7.5756,0,0,-7.4257,-7.441,-7.4491,-7.4718,-7.4769,-7.4805,-7.4891,-7.4882,-7.4982,-7.5022,-7.5081,-7.5179,-7.5324,-7.542,-7.5557,-7.5834,-7.5857,-7.596,-7.5994,-7.6022,-7.605,-7.6201,-7.6248,-7.5746,-7.5746,-7.5746,0,0,-7.4196,-7.4299,-7.4263,-7.4528,-7.4626,-7.472,-7.4857,-7.4815,-7.4941,-7.4921,-7.4912,-7.4938,-7.5177,-7.5225,-7.5091,-7.5508,-7.537,-7.5403,-7.5468,-7.5511,-7.5545,-7.5528,-7.4958,0,0,0,0,0,-7.406,-7.4286,-7.4252,-7.43,-7.454,-7.4738,-7.4769,-7.4767,-7.467,-7.4779,-7.4822,-7.4759,-7.5151,-7.5033,-7.508,-7.5229,-7.562,-7.5642,-7.5663,-7.5813,-7.5858,-7.5896,0,0,0,0,0,0,-7.4079,-7.4138,-7.4246,-7.4349,-7.4403,-7.473,-7.4565,-7.4571,-7.4658,-7.4643,-7.4753,-7.4763,-7.4764,-7.5008,-7.5051,-7.5193,-7.4944,-7.5628,-7.5648,-7.5665,-7.5828,-7.5865,-7.5897,0,0,0,0,0,-7.4094,-7.4141,-7.4527,-7.4346,-7.4393,-7.4445,-7.4556,-7.456,-7.4627,-7.4694,-7.4702,-7.4618,-7.4768,-7.4804,-7.5034,-7.5173,-7.4914,-7.493,-7.5641,-7.5656,-7.5669,-7.5846,0,0,0,0,0,0,-7.4105,-7.4145,-7.4536,-7.455,-7.4261,-7.4426,-7.4452,-7.4551,-7.4672,-7.4683,-7.4558,-7.4545,-7.4774,-7.48,-7.4828,-7.5167,-7.489,-7.4907,-7.4917,-7.5652,-7.5664,-7.5674,0,0,0,0,0,0,-7.412,-7.4158,-7.4543,-7.4436,-7.4437,-7.441,-7.4433,-7.4627,-7.4675,-7.4529,-7.4522,-7.4551,-7.4732,-7.4799,-7.4821,-7.5124,-7.4872,-7.4888,-7.4898,-7.4905,-7.5662,-7.5671,0,0,0,0,0,0,-7.4136,-7.4169,-7.4432,-7.4433,-7.4434,-7.4593,-7.4581,-7.4827,-7.4584,-7.4525,-7.4562,-7.4551,-7.4733,-7.4754,-7.4816,-7.5111,-7.512,-7.4873,-7.4883,-7.4891,-7.4895,0,0,0,0,0,0,0,-7.4149,-7.3931,-7.4452,-7.4431,-7.4432,-7.4681,-7.4685,-7.4689,-7.4581,-7.4573,-7.4564,-7.4556,-7.4784,-7.4801,-7.4818,-7.51,0,0,-7.4871,-7.4879,0,0,0,0,0,0,0,0,-7.3918,-7.3928,-7.4453,-7.4456,-7.4459,-7.4682,-7.4685,-7.4688,-7.458,-7.4573,-7.4566,-7.4559,-7.4789,-7.4802,-7.4816,0,0,0,0,0,0,0,0,0,0,0,0,0,0,0,-7.4453,-7.4455,0,-7.4682,-7.4685,-7.4687,-7.4579,-7.4573,-7.4567,-7.4562,-7.4792,-7.4804,-7.4815,0,0,0,0,0,0,0,0,0,0,0,0,0,0,0,0,0,0,0,0,0,0,0,0,0,0,0,0,0,0,0,0,0,0,0,0,0,0,0,0,0,0,0,0,0,0,0,0,0,0,0,0,0,0,0,0,0,0,0,0,0,0,0,0,0,0,0,0,0]}]]]